SPACEWAY 1

Last updated on Fri Jan 01 2021 06:25:09 GMT+0000 (Coordinated Universal Time)

1 28644U 05015A 20366.62614573 .00000037 00000-0 00000+0 0 9995 2 28644 1.5951 92.1889 0001739 66.0303 62.6502 0.98488888 57466
UTC large
Height (km)
Speed (km/s)
/
Latitude / Longitude
Inclination (degrees)
Orbital Period (minutes)
Azimuth
Elevation
Range (km)
Doppler Factor

Next 0 passes for location: London (51.5072 / 0.1276)

Sorry there are no passes over London.